Location: *
(48.8667°N, 2.3331°E)
Time: 11:15:32
(UTC+00:00)

Cosmos 2184 Rocket - Pass Details

Date: 09 April 2020
Orbit: 958 x 1003 km, 82.9° (Epoch: 25 May)

Event Time Altitude Azimuth Distance (km) Brightness Sun altitude
Rises 18:59:14 0° 351° (N) 3,710 7.4 -4.8°
Reaches altitude 10° 19:01:46 10° 352° (N) 2,751 6.7 -5.2°
Maximum altitude 19:08:06 82° 81° (E) 990 4.0 -6.2°
Drops below altitude 10° 19:14:18 10° 169° (S) 2,702 6.0 -7.1°
Sets 19:16:47 0° 170° (S) 3,639 6.7 -7.5°
